Wind_Speed
5 6 6 6 5 5 6 6 6 5 5 4 2 2 1 2 3 4 4 5 5 6 6 7 7 7 7 7 7 7 7 7 6 6 5 5 5 5 5 6 8 9 11
6 6 6 6 5 5 4 4 4 3 3 2 1 1 1 2 3 4 5 5 6 6 7 7 7 7 7 6 6 6 6 6 5 5 5 5 5 4 5 6 8 10 11
6 6 6 6 5 4 4 3 3 2 2 1 1 2 3 4 4 5 5 6 6 7 7 8 7 7 7 6 6 5 5 5 5 4 4 4 3 4 4 5 7 9 10
7 7 7 6 5 4 3 2 2 1 1 1 3 4 5 5 6 6 6 7 7 7 8 8 8 8 7 6 5 5 5 4 4 3 3 2 2 2 4 5 6 8 9
9 9 8 6 5 3 2 1 0 1 2 3 4 5 6 7 7 8 8 9 9 9 9 9 8 8 8 7 6 5 5 5 4 3 2 1 0 1 3 4 6 8 9
10 9 8 6 5 3 2 1 1 2 3 4 6 7 8 9 9 10 10 11 11 12 12 11 10 9 8 8 7 6 5 5 5 5 3 2 2 2 3 4 5 7 8
12 10 8 6 4 3 2 2 3 4 5 6 8 9 10 11 12 12 13 13 14 14 14 13 12 11 10 9 8 7 7 6 6 6 6 4 4 4 5 5 6 7 8
13 11 8 6 5 4 4 4 5 6 7 9 10 11 12 13 14 15 15 15 16 17 17 16 14 13 12 11 10 9 8 7 7 7 7 7 6 6 7 7 7 7 8
14 11 9 7 6 5 6 7 8 9 10 12 13 13 14 15 16 17 17 17 17 18 17 16 15 14 13 12 10 9 9 8 8 8 8 8 8 8 9 9 9 9 9
14 12 9 8 7 7 8 9 10 11 12 13 14 14 15 16 17 17 17 17 17 17 16 16 16 14 13 12 11 10 10 9 9 9 9 9 9 9 10 10 10 11 11
15 13 10 9 8 9 10 11 12 13 13 14 14 15 16 17 17 16 16 16 15 15 15 16 15 13 13 11 11 10 10 10 10 10 10 10 10 11 11 12 12 13 13
17 15 12 10 9 10 11 12 13 13 13 14 14 15 15 16 16 16 15 15 14 14 14 14 13 13 13 12 12 11 10 10 11 11 10 10 11 12 12 13 14 15 15
19 16 14 11 11 11 12 13 13 13 13 14 14 15 15 15 15 14 13 14 14 14 14 14 14 14 13 12 11 11 11 11 11 11 11 11 11 12 14 14 15 17 17
19 17 14 12 11 11 12 12 12 12 12 13 13 13 13 13 13 12 12 12 12 13 13 13 13 13 13 13 12 11 10 11 11 12 12 12 13 13 14 15 16 17 19
18 17 14 12 11 11 11 10 10 11 11 11 11 11 11 10 10 10 10 10 11 12 12 12 13 13 13 12 12 12 11 11 12 12 12 13 14 14 15 15 17 18 20
18 16 14 12 10 10 9 8 8 9 9 9 8 8 8 8 8 8 9 9 10 10 11 11 11 12 12 13 13 12 12 12 12 12 13 13 13 14 15 16 17 18 19
16 14 13 11 9 7 7 7 7 7 7 7 7 7 7 7 7 7 7 8 8 9 9 10 10 11 11 12 12 13 13 12 12 13 13 14 14 14 15 16 17 19 20
14 13 11 9 8 7 6 6 5 5 5 5 5 5 5 6 6 6 6 6 7 8 8 9 9 9 10 11 12 12 12 13 13 13 13 13 14 15 16 16 17 19 20
14 13 11 9 8 6 5 5 4 3 4 3 3 4 4 5 6 6 6 6 7 7 7 8 8 9 10 10 11 11 11 12 13 13 13 14 14 15 16 17 17 18 20
14 12 10 9 8 6 5 3 3 3 3 3 4 4 5 5 6 6 6 7 7 7 7 7 8 8 9 10 10 11 11 12 12 13 14 14 15 16 17 17 17 18 20
14 12 10 8 7 6 4 3 3 3 3 3 4 4 5 5 6 6 6 7 7 7 7 8 8 9 9 10 10 11 11 12 12 13 13 14 15 16 17 18 19 19 20
13 11 9 8 7 6 4 3 2 3 3 4 4 4 5 5 6 6 7 7 8 8 8 9 9 10 10 10 11 11 11 12 12 13 13 14 15 16 17 18 19 20 21
12 11 10 8 7 6 4 3 3 3 3 3 4 4 5 6 6 7 7 8 9 9 8 8 9 9 10 11 12 13 13 13 13 13 14 15 15 16 18 19 20 21 22
12 10 9 8 6 5 4 4 4 3 3 3 3 4 5 5 6 7 7 8 8 9 9 9 9 9 10 11 13 14 14 15 15 15 15 16 17 17 18 19 20 22 23
11 9 8 7 6 5 5 5 4 4 4 4 4 4 5 6 6 7 7 8 8 8 9 10 10 11 11 12 13 14 15 16 17 17 18 18 19 20 20 20 21 22 23
9 8 7 6 6 6 6 5 5 5 4 4 4 5 5 6 6 7 7 8 8 9 10 11 12 13 13 14 15 16 16 17 18 19 20 20 21 22 23 23 24 24 24
Wind_Direction
202 216 214 193 177 162 142 127 118 112 108 104 100 82 36 6 351 344 342 342 344 347 350 355 1 5 10 12 12 14 17 20 28 33 36 41 50 63 75 95 104 117 123
204 210 211 199 185 169 147 130 118 109 102 97 85 34 347 326 320 322 323 325 330 336 341 345 349 355 360 2 2 3 7 12 21 28 34 37 46 64 82 100 112 121 128
208 210 207 201 191 175 153 134 123 114 97 62 352 338 328 323 319 319 321 321 324 328 332 336 338 343 349 351 350 349 352 0 10 15 23 31 44 67 83 106 121 128 132
213 209 201 194 186 173 162 144 121 98 44 347 330 325 322 321 319 318 319 320 322 325 327 329 330 331 335 340 339 335 335 337 345 356 8 18 44 77 94 114 130 136 140
217 213 203 194 186 179 175 167 124 5 333 323 324 324 322 320 318 317 316 317 318 318 319 322 325 326 327 328 329 327 323 319 317 317 327 335 355 119 128 131 141 147 150
218 215 205 196 191 190 201 229 290 312 311 310 312 313 313 313 313 312 312 312 313 313 312 312 314 315 317 318 318 317 313 307 300 293 280 271 247 191 167 159 158 162 162
218 215 211 206 208 220 241 272 289 299 304 304 303 304 304 305 305 306 306 305 306 307 307 305 305 305 305 307 308 308 305 299 292 281 269 259 247 222 200 186 179 179 177
221 222 219 218 227 243 265 280 290 296 300 299 298 299 301 301 301 300 301 298 300 301 301 300 299 299 297 299 302 302 300 295 286 279 270 261 250 230 218 205 197 193 191
229 231 228 231 244 262 276 286 292 296 296 295 294 296 298 300 300 297 297 295 295 297 297 296 294 292 290 291 291 291 294 291 281 275 269 260 249 235 225 219 211 204 200
227 227 230 238 252 265 277 286 290 293 295 295 295 296 298 298 297 296 294 293 293 293 293 291 290 287 284 283 279 281 286 286 278 271 265 260 248 236 228 226 221 213 209
220 223 231 240 253 266 277 284 290 292 294 296 296 296 296 297 296 293 291 292 290 289 291 291 288 285 281 280 277 278 281 283 278 272 264 256 250 241 234 230 225 219 216
222 225 230 242 255 267 277 283 289 293 296 297 298 296 295 294 293 291 288 288 286 287 288 288 289 287 283 278 277 275 277 279 277 272 264 256 251 246 242 236 230 222 219
219 224 231 244 255 266 276 283 289 294 296 298 299 298 295 294 292 290 287 287 285 284 283 282 283 283 283 281 278 274 272 271 271 272 264 256 254 250 246 242 236 227 223
219 220 228 242 253 264 273 281 287 292 297 299 301 301 298 296 294 292 288 286 286 286 284 282 281 280 280 281 278 273 268 268 267 268 264 259 257 255 251 247 241 233 228
218 218 224 236 248 258 267 276 284 291 298 302 303 302 300 298 296 294 292 290 290 289 287 283 281 279 278 277 276 272 270 270 268 267 264 261 258 258 253 250 244 238 231
209 211 220 231 242 252 263 273 282 289 297 305 306 307 304 300 298 298 297 297 296 293 291 289 285 283 280 278 276 274 273 273 270 266 263 261 260 259 255 250 245 240 234
205 208 216 225 231 242 258 267 275 286 298 303 304 305 305 303 304 304 304 306 304 300 298 296 292 289 285 282 280 277 273 272 270 266 260 258 258 258 256 254 249 243 239
199 200 205 210 219 231 246 259 274 285 291 296 300 305 310 312 312 313 312 311 311 310 307 306 301 295 291 288 284 279 276 273 273 270 266 261 258 256 256 257 254 247 242
191 194 200 205 211 219 238 254 267 275 282 296 307 315 321 326 328 328 325 321 319 318 316 314 310 303 298 295 291 286 282 278 276 274 272 268 264 260 257 257 255 249 245
186 186 189 194 200 209 220 229 244 261 275 297 309 317 324 330 334 334 331 326 322 318 316 316 315 312 307 302 297 292 287 284 281 278 275 272 268 264 261 259 255 252 249
181 178 178 183 188 196 201 213 236 259 280 298 308 316 322 330 337 338 337 334 329 324 319 315 315 315 313 309 304 299 294 289 285 281 277 273 269 266 263 261 258 255 253
172 168 170 176 178 183 193 210 243 267 285 295 300 310 320 329 338 340 339 339 337 332 326 322 318 314 311 310 308 306 302 296 290 285 280 276 272 268 266 263 260 257 256
167 168 170 174 177 187 202 222 248 266 281 288 298 314 329 336 340 342 342 341 341 338 334 330 326 322 316 312 309 306 304 301 296 290 284 279 276 272 269 267 264 261 258
167 169 174 180 184 195 212 230 242 254 268 282 302 323 336 340 343 344 345 346 345 346 346 344 342 336 329 322 315 309 305 301 298 293 288 283 280 276 273 270 267 264 261
168 175 185 190 196 209 220 229 240 251 266 284 304 321 331 336 340 344 345 346 346 347 346 345 343 339 334 328 321 316 311 305 300 295 289 285 282 279 276 273 271 268 265
174 186 196 203 208 217 224 231 240 254 269 284 295 308 320 327 332 333 333 333 332 332 333 333 331 329 327 326 323 318 313 308 303 298 292 287 284 281 279 276 273 270 268
Height
5895 5896 5896 5896 5896 5896 5896 5896 5897 5898 5899 5899 5900 5901 5901 5901 5901 5901 5901 5902 5902 5902 5902 5902 5901 5901 5900 5900 5900 5899 5899 5898 5898 5898 5898 5897 5897 5896 5896 5896 5897 5898 5899
5895 5895 5896 5896 5896 5896 5896 5896 5897 5898 5898 5899 5899 5900 5900 5901 5901 5901 5901 5901 5901 5901 5901 5901 5901 5900 5900 5900 5900 5899 5899 5899 5898 5898 5898 5898 5897 5897 5897 5897 5898 5899 5900
5894 5895 5895 5895 5896 5896 5896 5896 5896 5897 5897 5898 5899 5899 5899 5899 5900 5900 5900 5899 5899 5900 5900 5900 5900 5900 5900 5899 5899 5899 5899 5899 5898 5898 5898 5898 5898 5898 5898 5898 5899 5900 5901
5894 5894 5895 5895 5895 5895 5895 5895 5896 5896 5897 5897 5897 5898 5898 5898 5898 5898 5898 5898 5898 5898 5898 5898 5899 5899 5899 5899 5899 5899 5898 5898 5898 5898 5898 5898 5898 5898 5899 5899 5900 5901 5902
5893 5894 5894 5894 5894 5894 5895 5895 5895 5896 5896 5896 5897 5897 5897 5896 5896 5897 5897 5896 5896 5897 5897 5897 5897 5897 5898 5898 5898 5898 5898 5897 5898 5898 5898 5898 5898 5899 5899 5900 5901 5902 5903
5893 5893 5893 5893 5893 5893 5894 5894 5895 5895 5895 5896 5896 5896 5895 5895 5895 5895 5895 5895 5895 5895 5895 5895 5895 5895 5896 5896 5896 5897 5897 5897 5897 5897 5897 5897 5898 5898 5899 5900 5901 5902 5903
5891 5892 5892 5892 5892 5893 5893 5894 5894 5894 5894 5894 5894 5894 5894 5894 5894 5893 5893 5893 5893 5892 5893 5893 5893 5893 5894 5894 5894 5895 5895 5895 5895 5896 5896 5896 5897 5898 5899 5900 5901 5902 5903
5890 5891 5891 5891 5891 5892 5892 5892 5893 5893 5893 5893 5893 5892 5892 5892 5892 5891 5891 5890 5890 5890 5890 5890 5891 5891 5891 5892 5892 5892 5893 5893 5893 5894 5894 5895 5896 5897 5898 5899 5900 5902 5903
5888 5889 5889 5889 5889 5890 5890 5891 5891 5891 5891 5891 5890 5890 5890 5890 5889 5889 5889 5888 5888 5887 5887 5887 5888 5888 5889 5889 5890 5890 5890 5891 5892 5892 5893 5893 5894 5895 5896 5898 5899 5901 5902
5885 5886 5887 5887 5888 5888 5888 5889 5889 5888 5888 5888 5888 5888 5887 5887 5887 5886 5886 5886 5885 5885 5884 5884 5884 5885 5886 5887 5887 5887 5888 5889 5889 5890 5891 5891 5892 5893 5895 5896 5898 5899 5901
5882 5883 5885 5885 5885 5886 5886 5886 5886 5886 5886 5886 5886 5885 5885 5884 5884 5883 5883 5883 5883 5882 5882 5881 5881 5882 5883 5884 5885 5885 5886 5886 5887 5888 5888 5889 5890 5891 5893 5894 5896 5897 5899
5879 5881 5882 5883 5883 5883 5884 5883 5883 5883 5883 5883 5883 5883 5882 5882 5881 5881 5881 5880 5880 5880 5880 5879 5879 5879 5880 5881 5882 5883 5884 5884 5884 5885 5886 5887 5888 5889 5891 5892 5893 5895 5897
5876 5878 5879 5880 5880 5880 5881 5881 5881 5880 5880 5880 5880 5880 5880 5879 5879 5878 5878 5878 5878 5878 5877 5877 5877 5877 5878 5879 5880 5881 5881 5882 5882 5883 5884 5885 5886 5887 5888 5889 5891 5892 5894
5872 5874 5876 5876 5877 5878 5878 5878 5878 5878 5878 5878 5878 5877 5877 5877 5876 5876 5876 5876 5875 5875 5875 5875 5875 5875 5876 5876 5877 5878 5879 5879 5880 5880 5881 5882 5883 5884 5885 5886 5888 5889 5891
5868 5870 5872 5873 5874 5875 5876 5876 5876 5876 5876 5876 5876 5875 5875 5875 5874 5874 5874 5873 5873 5873 5872 5872 5872 5873 5873 5874 5875 5875 5876 5877 5877 5878 5878 5879 5880 5881 5882 5883 5884 5886 5888
5864 5866 5868 5870 5872 5873 5874 5874 5874 5874 5874 5874 5874 5874 5873 5873 5872 5872 5872 5871 5871 5870 5870 5870 5870 5870 5870 5871 5872 5872 5873 5873 5874 5875 5875 5876 5877 5877 5878 5879 5881 5883 5885
5860 5863 5866 5868 5869 5870 5871 5872 5872 5873 5873 5873 5873 5872 5872 5872 5871 5871 5870 5870 5869 5868 5868 5868 5868 5868 5868 5868 5869 5869 5870 5870 5871 5872 5872 5873 5874 5874 5875 5876 5877 5879 5881
5858 5861 5864 5866 5867 5869 5870 5870 5871 5871 5872 5872 5872 5872 5871 5871 5870 5869 5869 5868 5867 5867 5866 5866 5866 5866 5866 5866 5866 5866 5867 5867 5868 5868 5869 5869 5870 5871 5872 5873 5874 5875 5877
5856 5859 5861 5864 5866 5868 5869 5869 5870 5870 5871 5871 5871 5871 5870 5870 5869 5868 5868 5867 5866 5866 5865 5865 5864 5864 5864 5864 5864 5864 5864 5865 5865 5865 5866 5866 5867 5867 5868 5869 5870 5871 5873
5855 5858 5860 5863 5865 5867 5868 5868 5869 5869 5870 5870 5870 5870 5870 5869 5868 5867 5866 5866 5865 5865 5864 5864 5863 5863 5862 5862 5862 5862 5862 5862 5862 5862 5863 5863 5864 5864 5865 5866 5867 5868 5869
5854 5857 5860 5862 5864 5866 5867 5868 5868 5869 5869 5869 5869 5869 5869 5868 5867 5866 5866 5865 5864 5864 5863 5862 5862 5861 5860 5860 5860 5860 5859 5859 5859 5859 5860 5860 5860 5860 5861 5862 5863 5864 5865
5853 5856 5859 5862 5863 5865 5866 5867 5867 5868 5868 5868 5868 5868 5868 5867 5866 5865 5865 5864 5863 5862 5861 5861 5860 5859 5859 5858 5858 5857 5857 5857 5856 5856 5856 5856 5857 5857 5857 5857 5858 5859 5860
5853 5856 5859 5861 5862 5864 5865 5866 5867 5867 5867 5867 5867 5867 5866 5866 5865 5864 5863 5863 5862 5861 5860 5859 5858 5857 5857 5856 5855 5855 5854 5854 5853 5853 5853 5853 5852 5853 5853 5853 5853 5854 5855
5853 5856 5858 5860 5862 5863 5864 5865 5866 5866 5866 5866 5866 5865 5865 5864 5864 5863 5862 5861 5861 5860 5859 5858 5857 5856 5855 5854 5853 5852 5851 5850 5850 5849 5849 5849 5848 5848 5848 5848 5849 5849 5850
5853 5856 5858 5860 5861 5862 5863 5864 5864 5865 5865 5865 5864 5864 5863 5863 5862 5861 5861 5860 5859 5858 5857 5856 5855 5854 5853 5851 5850 5849 5847 5847 5846 5845 5845 5844 5844 5843 5843 5843 5843 5844 5844
5854 5856 5858 5859 5860 5861 5862 5863 5863 5863 5863 5863 5863 5862 5862 5861 5861 5860 5859 5858 5857 5856 5855 5854 5852 5851 5850 5849 5847 5846 5844 5843 5841 5840 5839 5839 5838 5838 5837 5837 5837 5838 5838